GALAXY 37 (G-37)

Last updated on Thu Nov 21 2024 00:02:45 GMT+0000 (Coordinated Universal Time)

1 57493U 23112A 24325.43474372 .00000049 00000+0 00000+0 0 9998 2 57493 0.0236 33.2426 0002414 216.4654 199.7584 1.00272380 4796
UTC large
Height (km)
Speed (km/s)
/
Latitude / Longitude
Inclination (degrees)
Orbital Period (minutes)
Azimuth
Elevation
Range (km)
Doppler Factor

Next 0 passes for location: London (51.5072 / 0.1276)

Sorry there are no passes over London.